Location: Newark
(45.4422°N, 16.2769°E)
Time: 10:44:36
(UTC+00:00)

Tiros 1 despin weight - Pass Details

Date: 16 December 2019
Orbit: 594 x 642 km, 48.2° (Epoch: 24 January)

Event Time Altitude Azimuth Distance (km) Brightness Sun altitude
Rises 03:06:11 0° 254° (WSW) 2,899 - -34.4°
Reaches altitude 10° 03:08:31 10° 255° (WSW) 1,985 - -34.0°
Maximum altitude 03:13:05 81° 344° (NNW) 625 - -33.1°
Exits shadow 03:15:42 25° 69° (ENE) 1,245 ? -32.7°
Drops below altitude 10° 03:17:36 10° 71° (ENE) 1,958 ? -32.4°
Sets 03:19:53 0° 73° (ENE) 2,856 ? -32.0°
